User: anonymous   Login
Location: Ash Swamp
(41.5170°N, 74.6157°W)
Time: 08:56:04
(UTC+00:00)
Language:

Cosmos 407 Rocket - Orbit

View from above orbital plane
View from above orbital plane
View from above satellite
View from above satellite

Ground track
Ground track

The orbit data is extracted from the following two-line orbital elements,

1  5175U 71035B   20266.15710344  .00000033  00000-0  19587-4 0  9995
2  5175  74.0497 173.9020 0028799  87.1925 273.2524 14.37991619586419
Epoch (UTC): 22 September 2020 03:46:13
Eccentricity: 0.0028799
inclination: 74.0497°
perigee height: 744 km
apogee height: 786 km
right ascension of ascending node: 173.9020°
argument of perigee: 87.1925°
revolutions per day: 14.37991619
mean anomaly at epoch: 273.2524°
orbit number at epoch: 58641

The dashed part of the orbit path shows where the satellite is in the earth's shadow,  

DLR